Location: New Greens
(51.7702°N, 0.3379°W)
Time: 21:51:06
(UTC+00:00)

Envisat - Pass Details

Date: 24 January 2019
Orbit: 764 x 766 km, 98.2° (Epoch: 19 February)

Event Time Altitude Azimuth Distance (km) Brightness Sun altitude
Rises 05:55:38 0° 32° (NNE) 3,245 6.6 -17.7°
Reaches altitude 10° 06:00:32 10° 74° (ENE) 2,309 6.5 -17.0°
Maximum altitude 06:01:16 10° 82° (E) 2,289 6.6 -16.9°
Drops below altitude 10° 06:02:00 10° 90° (E) 2,307 6.8 -16.7°
Sets 06:06:51 0° 132° (SE) 3,224 7.3 -16.0°
